Regional Weather Roundup
Issued by NWS Sterling, VA

Home | Current Version | Previous Version | Graphics & Text | Print | Product List | Glossary On
Versions: 1 2 3 4 5 6 7 8 9 10 11 12 13 14 15 16 17 18 19 20 21 22 23 24 25 26 27 28 29 30 31 32 33 34 35 36 37 38 39 40 41 42 43 44 45 46 47 48 49 50
000
ASUS41 KLWX 210210
RWRLWX

REGIONAL WEATHER ROUNDUP
NATIONAL WEATHER SERVICE BALTIMORE MD/WASHINGTON DC
900 PM EST FRI JAN 20 2017

Note: "FAIR" indicates few or no clouds below 12,000 feet
with no significant weather and/or obstructions to visibility.
 TC=TEMPERATURE CELSIUS

 * =Non NWS site. Station does not report precipitation (e.g. rain,
    snow, etc.), thunder, or fog.

DCZ001-MDZ009-015-VAZ040>042-051-053>054-210300-
WASHINGTON METRO

CITY           SKY/WX    TMP DP  RH WIND       PRES   REMARKS
WASHINGTON NAT CLOUDY    48  46  93 S7        29.92S
DULLES         CLOUDY    47  44  90 S6        29.90R FOG
ANDREWS AFB    CLOUDY    45  44  97 S3        29.90R FOG
FT BELVOIR     CLOUDY    46  45  93 CALM      29.91S
QUANTICO       FOG       45  45 100 S5        29.93S VSB 3/4
COLLEGE PARK*  CLOUDY    45  43  93 CALM      29.91S
LEESBURG*      CLOUDY    48  48 100 S6        29.90S FOG
GAITHERSBURG*  CLOUDY    46  43  87 S6        29.94R

$$

MDZ006>007-011-014-210300-
BALTIMORE METRO

CITY           SKY/WX    TMP DP  RH WIND       PRES   REMARKS
BWI AIRPORT    CLOUDY    45  44  97 CALM      29.90S FOG
MD SCIENCE CTR   N/A     45  41  86 MISG      29.92R
MARTIN STATE   CLOUDY    45  45 100 CALM      29.93S FOG
ANNAPOLIS      CLOUDY    46  43  89 S3        29.92R
FORT MEADE*    CLOUDY    43  41  93 CALM      29.93S

$$

MDZ012-015-019>023-210300-
MARYLAND EASTERN SHORE

CITY           SKY/WX    TMP DP  RH WIND       PRES   REMARKS
OCEAN CITY     CLOUDY    46  46 100 CALM      29.92R FOG
SALISBURY      CLOUDY    46  45  96 CALM      29.92R FOG
BAY BRIDGE AP* CLOUDY    43  43 100 CALM      29.92R FOG
CAMBRIDGE*     MOCLDY    43  43 100 S3        29.92S
EASTON*        MOCLDY    46  45  93 S3        29.95R FOG

$$

MDZ017>025-210300-
SOUTHERN MARYLAND

CITY           SKY/WX    TMP DP  RH WIND       PRES   REMARKS
PATUXENT RIVER CLOUDY    45  44  97 CALM      29.92F FOG
ST INIGOES     CLOUDY    46  44  93 CALM      29.92F
LEONARDTOWN*   CLOUDY    45  43  93 CALM      29.93S

$$

MDZ003>005-210300-
NORTH CENTRAL MARYLAND

CITY           SKY/WX    TMP DP  RH WIND       PRES   REMARKS
FREDERICK*     CLOUDY    41  41 100 CALM      29.93R FOG
HAGERSTOWN APT CLOUDY    42  39  89 CALM      29.87S FOG
WESTMINSTER*   FOG       41  41 100 SE5       29.88S VSB 1

$$

MDZ501>502-210300-
WESTERN MARYLAND

CITY           SKY/WX    TMP DP  RH WIND       PRES   REMARKS
OAKLAND*         N/A     45  45 100 S6        29.84S
CUMBERLAND*    CLOUDY    43  43 100 CALM      29.91S

$$

VAZ025>031-210300-
SHENANDOAH VALLEY

CITY           SKY/WX    TMP DP  RH WIND       PRES   REMARKS
WINCHESTER*    PTCLDY    39  37  93 CALM      29.88R FOG
FRONT ROYAL*   CLEAR     43  41  93 CALM      29.87S
LURAY*         PTCLDY    43  43 100 CALM      29.87R FOG
NEW MARKET*    PTCLDY    40  39  96 CALM      29.87R
STAUNTON*      PTCLDY    43  43  99 CALM      29.90R FOG
WAYNESBORO*    PTCLDY    43  42  96 CALM      29.88S

$$

WVZ021-048>050-054>055-210300-
EASTERN WEST VIRGINIA PANHANDLE

CITY           SKY/WX    TMP DP  RH WIND       PRES   REMARKS
MARTINSBURG    FOG       39  38  96 CALM      29.88R VSB 1/4
PETERSBURG*    FOG       41  40  99 CALM      29.88S VSB 1

$$

VAZ036>039-050-210300-
CENTRAL FOOTHILLS

CITY           SKY/WX    TMP DP  RH WIND       PRES   REMARKS
CHARLOTTESVILL CLOUDY    51  47  86 S3        29.89R
CULPEPER*      CLOUDY    49  48  95 CALM      29.91F
ORANGE*          N/A     50  50 100 CALM      29.92S
GORDONSVILLE*  CLOUDY    49  48  98 S7        29.90S
WARRENTON*     CLOUDY    49  46  87 SE3       29.89F FOG

$$

VAZ055>057-210300-
NORTH AND CENTRAL PIEDMONT

CITY           SKY/WX    TMP DP  RH WIND       PRES   REMARKS
FREDERICKSBRG* CLOUDY    48  48 100 CALM      29.91F FOG
STAFFORD*      CLOUDY    47  47 100 CALM      29.95F FOG

$$

NCZ024-NYZ072-PAZ021-071-VAZ022-071-210300-
OTHER REGIONAL OBSERVATIONS

CITY           SKY/WX    TMP DP  RH WIND       PRES   REMARKS
NEW YORK CITY  CLOUDY    41  39  93 S6        29.95R
PHILADELPHIA   CLOUDY    42  40  92 CALM      29.93R
PITTSBURGH     MOCLDY    53  51  93 S5        29.79R
ROANOKE        CLOUDY    49  48  97 CALM      29.92R FOG
RICHMOND       DRZL/FOG  48  48 100 SE3       29.92S VSB 1/2
RALEIGH        FOG       50  49  96 CALM      29.92R VSB 1/2

$$

ANZ530>537-210300-
MARINE OBSERVATIONS

STATION/POSITION TIME  TEMP    WIND        PRES
                       AIR SEA DIR/SP/G
                 (UTC) (F)     (DEG/KT/KT) (MB)
THOMAS PT LIGHT  0100   42 39  190/  6/  6   N/A
BALT KEY BRIDGE  0136   42     120/  2/  3 1012.9R
COVE POINT       0136   44     190/ 11/ 12 1013.7F
LEWISETTA        0136   46 44  190/  3/  4 1013.1S
SOLOMONS ISLAND  0136   44 41  150/  5/  6   N/A
PINEY POINT      0130          150/  6/  6   N/A

$$




USA.gov is the U.S. government's official web portal to all federal, state and local government web resources and services.